Torna al catalogo

COSMOS 2251 DEB

AttivoVLEO
NORAD 35023·DEBRIS·🇷🇺 Russia

Lanciato Jun 16, 1993 da Plesetsk Cosmodrome

Loading…

Prossimi Passaggi (prossime 24 ore)

TLE

AggiornatoSource: Space-Track

Epoca: Sep 14, 2026, 07:32 UTC

1 35023U 93036AGL 26257.31398154  .00012343  00000-0  86373-3 0  9993
2 35023  74.0358  11.9441 0028607  20.8951  10.0121 15.04978662924132

Traccia COSMOS 2251 DEB in tempo reale con AllMySat

Download on the App Store